User: anonymous   Login
Location: Unspecified
(0.0000°N, 0.0000°E)
Time: 05:27:11
(UTC+01:00)
Language:

Transit 2A - Orbit

View from above orbital plane
View from above orbital plane
View from above satellite
View from above satellite

Ground track
Ground track

The orbit data is extracted from the following two-line orbital elements,

1 00045U 60007A   18054.48047111 -.00000078  00000-0  76578-5 0  9990
2 00045  66.6936  87.4558 0259513 212.1019 146.4054 14.33588849  1586
Epoch (UTC): 23 February 2018 11:31:52
Eccentricity: 0.0259513
inclination: 66.6936°
perigee height: 594 km
apogee height: 965 km
right ascension of ascending node: 87.4558°
argument of perigee: 212.1019°
revolutions per day: 14.33588849
mean anomaly at epoch: 146.4054°
orbit number at epoch: 158

The dashed part of the orbit path shows where the satellite is in the earth's shadow,  

DLR